Regional Weather Roundup
Issued by NWS

Home | Current Version | Previous Version | Graphics & Text | Print | Product List | Glossary On
Versions: 1 2 3 4 5 6 7 8 9 10 11 12 13 14 15 16 17 18 19 20 21 22 23 24 25 26 27 28 29 30 31 32 33 34 35 36 37 38 39 40 41 42 43 44 45 46 47 48 49 50
000
ASUS43 KLOT 250810
RWRIL

ILLINOIS REGIONAL WEATHER ROUNDUP
NATIONAL WEATHER SERVICE CHICAGO/ROMEOVILLE IL
300 AM CDT SAT OCT 25 2014

NOTE: "FAIR" INDICATES FEW OR NO CLOUDS BELOW 12,000 FEET WITH NO
SIGNIFICANT WEATHER AND/OR OBSTRUCTIONS TO VISIBILITY.

* THESE STATIONS ARE NOT UNDER NWS QUALITY CONTROL. THEY ALSO MAY NOT
  REPORT WEATHER SUCH AS PRECIPITATION OR FOG.

ILZ001-002-007-009-015-016-024-250900-
NORTHWEST ILLINOIS

CITY           SKY/WX    TMP DP  RH WIND       PRES   REMARKS
MOLINE         FOG       51  50  96 W6        29.95R VSB 1/4
STERLING*      CLOUDY    57  54  88 NW7       29.94R VSB 1/4
SAVANNA*       CLOUDY    59  57  93 W5        29.94R FOG
$$

ILZ003-004-008-010-011-017-018-250900-
NORTH CENTRAL ILLINOIS

CITY           SKY/WX    TMP DP  RH WIND       PRES   REMARKS
ROCKFORD       MOCLDY    56  54  93 W7        29.95R FOG
FREEPORT*      CLOUDY    58  56  95 W7        29.94S FOG
ROCHELLE*      CLOUDY    55  55  99 W8        29.93R FOG
DE KALB*       MOCLDY    54  52  94 W9        29.92R FOG
PERU*          MOCLDY    54  51  87 W5        29.93R
$$

ILZ005-006-012>014-019>023-250900-
NORTHEAST ILLINOIS

CITY           SKY/WX    TMP DP  RH WIND       PRES   REMARKS
CHICAGO-OHARE  CLOUDY    57  50  77 SW6       29.89S
CHICAGO-MIDWAY MOCLDY    57  52  83 SW6       29.89F
AURORA         CLEAR     51  47  86 SW3       29.91S
LANSING*       PTCLDY    54  52  92 SW5       29.90F
JOLIET*        PTCLDY    55  51  87 CALM      29.91S
WAUKEGAN       MOCLDY    56  51  84 VRB3      29.87S
DUPAGE AIRPORT PTCLDY    52  48  86 SW6       29.90S
KANKAKEE*      PTCLDY    53  51  92 SW6       29.92F
WHEELING       CLOUDY    59  50  72 SW5       29.90S
MORRIS*        PTCLDY    55  52  92 W5        29.91S
ROMEOVILLE*    CLEAR     55  51  87 W6        29.91R
NORTHERLY ISL    N/A     58  51  78 W3          N/A
$$

LMZ740>746-250900-
SOUTHERN LAKE MICHIGAN

STATION/POSITION SKY/WX   TEMP    WIND        PRES    VSBY  WAVE
                          AIR SEA DIR/SP/G                  HT/PER
                          (F)     (DEG/KT/KT) (MB)    (MI)  (FT/S)
SOUTHERN BUOY              56 54  220/ 12/ 14 1011.3R         1/ 3
WAUKEGAN HARBOR            58     240/  7/  9   N/A
HARRISON CRIB              60     200/ 13/ 17   N/A
BURNHAM HARBOR             58     250/  6/  8   N/A
CALUMET HARBOR             58     230/  4/  8 1011.2R
MICHIGAN CITY              58     170/ 11/ 13   N/A
$$

ILZ025>027-034>036-040-047-049-050-058-095>099-250900-
WEST-CENTRAL ILLINOIS

CITY           SKY/WX    TMP DP  RH WIND       PRES   REMARKS
QUINCY         MOCLDY    57  56  96 SW5       29.97S FOG
GALESBURG*       N/A     48  47  97 CALM      29.94F FOG
MACOMB*          N/A     47  47  99 W5        29.97F FOG
PITTSFIELD*    PTCLDY    62  58  87 W3        29.98S
$$

ILZ028>032-037-038-041>044-048-051>054-059>061-250900-
CENTRAL ILLINOIS

CITY           SKY/WX    TMP DP  RH WIND       PRES   REMARKS
PONTIAC        MOCLDY    59  53  80 SW7       29.93F
BLOOMINGTON    MOCLDY    59  53  80 SW8       29.95F
DECATUR        MOCLDY    61  53  75 SW10      29.96S
PEORIA         MOCLDY    55  49  80 SW5       29.94F
LACON*         MOCLDY    57  50  77 W5        29.93S
LINCOLN*       MOCLDY    61  52  73 CALM      29.94S
SPRINGFIELD    PTCLDY    57  51  80 SW3       29.96S
TAYLORVILLE    CLOUDY    59  52  77 SW7       29.97S
$$

ILZ033-039-045-046-055>057-062-063-250900-
EAST-CENTRAL ILLINOIS

CITY           SKY/WX    TMP DP  RH WIND       PRES   REMARKS
CHAMPAIGN      PTCLDY    54  52  93 SW6       29.95S
DANVILLE*      MOCLDY    58  52  83 SW9       29.93S
RANTOUL*       MOCLDY    58  54  84 SW8       29.95S
MATTOON        CLOUDY    60  52  74 SW8       29.95S
PARIS*         CLOUDY    60  54  79 SW8       29.97S
$$

ILZ079-100>102-250900-
SOUTHWEST ILLINOIS

CITY           SKY/WX    TMP DP  RH WIND       PRES   REMARKS
ALTON          PTCLDY    57  53  88 CALM      29.99R
BELLEVILLE     CLEAR     54  54  99 S3        29.98S
CAHOKIA*       CLEAR     57  55  93 CALM      29.99R
SPARTA*        CLEAR     59  55  85 CALM      30.01S
$$

ILZ064>066-069>071-074>076-080>082-084>086-088>090-092>094-250900-
SOUTH-CENTRAL ILLINOIS

CITY           SKY/WX    TMP DP  RH WIND       PRES   REMARKS
CARBONDALE     CLEAR     55  52  89 S6        30.01F
CAIRO*         CLEAR     51  49  90 CALM      30.05S FOG
EFFINGHAM*     CLOUDY    61  51  70 S6        29.98S
MARION         PTCLDY    57  54  88 S6        30.02F
MT. VERNON     PTCLDY    55  48  76 SW3       30.01F
CENTRALIA*     CLEAR     57  52  82 SW6       29.99F
SALEM*         PTCLDY    60  56  87 SW7       29.99F
METROPOLIS*    CLOUDY    50  50 100 CALM      30.05S FOG
$$

ILZ067-068-072-073-078-083-087-091-250900-
SOUTHEAST ILLINOIS

CITY           SKY/WX    TMP DP  RH WIND       PRES   REMARKS
LAWRENCEVILLE  CLOUDY    54  53  97 S6        30.00F
FLORA*         PTCLDY    57  53  86 SW5       29.99F
FAIRFIELD*     MOCLDY    56  53  89 S5        29.99F
HARRISBURG*    PTCLDY    53  53 100 CALM      30.03F
ROBINSON*      MOCLDY    60  55  83 S8        29.99F
CARMI*         MOCLDY    56  55  97 S6        30.01F
$$

ABBREVIATIONS USED IN REMARKS
   TC - TEMPERATURE IN CELSIUS
  WCI - WIND CHILL INDEX
   HX - HEAT INDEX
  VSB - VISIBILITY
$$




USA.gov is the U.S. government's official web portal to all federal, state and local government web resources and services.